GW4015 Weather Reports


time (UTC)temp
C
wind
direction
speed
KPH
gust
KPH
rain 1hr
cm
rain 24hr
cm
rain mn
cm
humidity
%
barometer
mb
20260906232600 17 358 6.4 11.3 0.00 0.05 0.05 78 1018.5
20260906232059 17 2 9.7 12.9 0.00 0.05 0.05 77 1018.5
20260906231554 17 357 8.0 14.5 0.00 0.05 0.05 78 1018.4
20260906231050 17 316 11.3 14.5 0.00 0.05 0.05 78 1018.7
20260906230548 17 342 4.8 8.0 0.00 0.05 0.05 78 1018.6
20260906230043 18 58 4.8 14.5 0.00 0.05 0.05 77 1018.7
20260906225536 18 2 4.8 8.0 0.00 0.05 0.05 77 1018.8
20260906225032 18 354 4.8 8.0 0.00 0.05 0.05 76 1019.0
20260906224528 17 19 1.6 8.0 0.00 0.05 0.05 77 1018.7
20260906224024 18 324 6.4 9.7 0.00 0.05 0.05 76 1019.0
20260906223520 18 27 6.4 8.0 0.00 0.05 0.05 78 1019.0
20260906223019 17 54 8.0 9.7 0.00 0.05 0.05 78 1018.8
20260906222508 17 356 6.4 12.9 0.00 0.05 0.05 79 1019.2
20260906222006 17 5 9.7 12.9 0.00 0.05 0.05 80 1018.8
20260906221504 17 27 12.9 19.3 0.00 0.05 0.05 80 1018.8
20260906221000 17 48 11.3 16.1 0.00 0.05 0.05 80 1019.1
20260906220454 17 29 20.9 22.5 0.00 0.05 0.05 80 1019.0
20260906215949 17 50 9.7 20.9 0.00 0.05 0.05 80 1019.0
20260906215448 17 15 11.3 24.1 0.00 0.05 0.05 80 1018.8
20260906214946 17 39 17.7 20.9 0.00 0.05 0.05 80 1018.8
20260906214445 17 32 14.5 24.1 0.00 0.05 0.05 80 1019.1
20260906213945 17 33 17.7 24.1 0.00 0.05 0.05 80 1019.2
20260906213440 17 46 19.3 24.1 0.00 0.05 0.05 80 1019.0
20260906212938 17 34 17.7 20.9 0.00 0.05 0.05 80 1019.0
20260906212433 17 41 17.7 27.4 0.00 0.05 0.05 81 1019.1
20260906211928 17 58 20.9 22.5 0.00 0.05 0.05 80 1019.1
20260906211428 17 32 20.9 27.4 0.00 0.05 0.05 80 1019.1
20260906210922 17 54 24.1 27.4 0.00 0.05 0.05 80 1019.1
20260906210413 17 52 20.9 29.0 0.00 0.05 0.05 80 1019.0
20260906205906 17 37 24.1 35.4 0.00 0.05 0.05 80 1019.1
20260906205403 16 41 12.9 25.7 0.00 0.05 0.05 81 1019.0
20260906204859 17 45 20.9 29.0 0.00 0.05 0.05 80 1019.2
20260906204357 17 43 11.3 24.1 0.00 0.05 0.05 80 1019.1
20260906203857 17 39 20.9 27.4 0.00 0.05 0.05 80 1019.2
20260906203352 17 47 17.7 27.4 0.00 0.05 0.05 80 1019.2
20260906202850 17 42 19.3 24.1 0.00 0.05 0.05 80 1019.1
20260906202343 17 44 19.3 29.0 0.00 0.05 0.05 80 1019.1
20260906201843 16 19 12.9 29.0 0.00 0.05 0.05 80 1019.2
20260906201338 16 6 9.7 25.7 0.00 0.05 0.05 80 1019.3
20260906200833 16 26 19.3 25.7 0.00 0.05 0.05 80 1019.3
20260906200329 16 36 20.9 24.1 0.00 0.05 0.05 80 1019.3
20260906195824 16 33 19.3 29.0 0.00 0.05 0.05 79 1019.1
20260906195321 16 25 24.1 29.0 0.00 0.05 0.05 79 1019.3
20260906194816 17 39 16.1 25.7 0.00 0.05 0.05 78 1019.3
20260906194307 16 1 17.7 27.4 0.00 0.05 0.05 78 1019.2
20260906193806 16 31 22.5 30.6 0.00 0.05 0.05 78 1019.3
20260906193301 16 19 19.3 33.8 0.00 0.05 0.05 77 1019.1
20260906192757 16 46 27.4 37.0 0.00 0.05 0.05 76 1019.1
20260906192251 16 26 22.5 30.6 0.00 0.05 0.05 77 1019.1
20260906191751 17 11 16.1 30.6 0.00 0.05 0.05 77 1019.1
20260906191246 16 49 24.1 38.6 0.00 0.05 0.05 79 1019.1
20260906190745 16 48 20.9 35.4 0.00 0.05 0.05 78 1019.2
20260906190240 16 21 27.4 38.6 0.00 0.05 0.05 78 1019.1
20260906185739 16 35 29.0 41.8 0.00 0.05 0.05 77 1019.2
20260906185238 16 35 24.1 33.8 0.00 0.05 0.05 78 1019.4
20260906184733 16 23 29.0 33.8 0.00 0.05 0.05 78 1019.6
20260906184228 16 42 37.0 40.2 0.00 0.05 0.05 77 1019.5
20260906183724 16 19 14.5 30.6 0.00 0.05 0.05 78 1019.5
20260906183220 16 38 37.0 41.8 0.00 0.05 0.05 77 1019.7
20260906182720 16 19 29.0 37.0 0.00 0.05 0.05 79 1019.3
20260906182216 16 12 19.3 38.6 0.00 0.05 0.05 79 1019.3
20260906181711 16 12 24.1 33.8 0.00 0.05 0.05 81 1019.4
20260906181202 16 25 22.5 40.2 0.00 0.05 0.05 81 1019.3
20260906180701 15 41 30.6 38.6 0.00 0.05 0.05 82 1019.2
20260906180156 15 48 35.4 43.5 0.00 0.05 0.05 85 1019.4
20260906175654 14 52 27.4 35.4 0.00 0.05 0.05 87 1019.8
20260906175150 13 37 22.5 24.1 0.00 0.05 0.05 86 1020.7
20260906174648 13 35 16.1 20.9 0.00 0.05 0.05 87 1020.7
20260906174143 13 8 14.5 19.3 0.00 0.05 0.05 87 1020.8
20260906173638 13 359 11.3 16.1 0.00 0.05 0.05 88 1021.2
20260906173134 13 322 6.4 11.3 0.00 0.05 0.05 90 1021.2
20260906172632 13 301 11.3 14.5 0.00 0.05 0.05 89 1021.5
20260906172128 13 355 14.5 20.9 0.00 0.05 0.05 88 1021.4
20260906171628 13 2 9.7 20.9 0.00 0.05 0.05 89 1021.3
20260906171124 13 23 9.7 17.7 0.00 0.05 0.05 91 1021.3
20260906170620 13 17 9.7 20.9 0.00 0.05 0.05 91 1021.0
20260906170119 13 14 14.5 25.7 0.00 0.05 0.05 91 1021.2
20260906165615 13 21 6.4 25.7 0.00 0.05 0.05 92 1021.2
20260906165111 13 24 22.5 25.7 0.00 0.05 0.05 91 1021.2
20260906164609 13 31 19.3 24.1 0.00 0.05 0.05 92 1021.4
20260906164105 14 47 17.7 27.4 0.00 0.05 0.05 93 1021.4
20260906163601 14 55 14.5 20.9 0.00 0.05 0.05 94 1021.2
20260906163056 14 35 17.7 20.9 0.00 0.05 0.05 94 1021.0
20260906162553 13 50 9.7 19.3 0.00 0.05 0.05 95 1021.0
20260906162048 13 38 9.7 17.7 0.00 0.05 0.05 95 1021.0
20260906161543 13 39 8.0 9.7 0.00 0.05 0.05 95 1020.9
20260906161042 13 53 8.0 12.9 0.00 0.05 0.05 95 1021.3
20260906160541 13 50 8.0 14.5 0.00 0.05 0.05 95 1021.2
20260906160040 13 29 9.7 11.3 0.00 0.05 0.05 95 1021.3
20260906155538 12 20 4.8 8.0 0.05 0.05 0.05 94 1021.4
20260906155035 12 11 9.7 11.3 0.05 0.05 0.05 94 1021.6
20260906154530 12 359 8.0 12.9 0.13 0.05 0.05 94 1021.6
20260906154028 12 351 8.0 12.9 0.18 0.03 0.03 93 1021.7
20260906153527 12 358 8.0 16.1 0.05 0.00 0.00 92 1022.0
20260906153023 13 344 12.9 16.1 0.00 0.00 0.00 91 1021.9
20260906152517 13 325 14.5 17.7 0.00 0.00 0.00 91 1021.9
20260906152016 12 341 14.5 19.3 0.00 0.00 0.00 91 1022.0
20260906151512 12 352 9.7 16.1 0.00 0.00 0.00 92 1022.0
20260906151008 12 329 16.1 25.7 0.00 0.00 0.00 91 1022.0
20260906150503 12 317 16.1 25.7 0.00 0.00 0.00 91 1021.8
20260906150002 12 327 20.9 29.0 0.00 0.00 0.00 91 1021.7
20260906145501 14 318 12.9 19.3 0.00 0.00 0.00 92 1022.3
20260906144956 14 330 8.0 16.1 0.00 0.00 0.00 91 1022.0
20260906144450 14 9 11.3 17.7 0.00 0.00 0.00 92 1021.7
20260906143945 14 56 11.3 24.1 0.00 0.00 0.00 92 1021.7
20260906143441 13 65 16.1 30.6 0.00 0.00 0.00 92 1021.7
20260906142936 13 59 24.1 32.2 0.00 0.00 0.00 93 1021.4
20260906142431 13 61 20.9 33.8 0.00 0.00 0.00 93 1021.0
20260906141926 13 51 25.7 29.0 0.00 0.00 0.00 93 1021.3
20260906141425 13 55 12.9 27.4 0.00 0.00 0.00 93 1021.6
20260906140920 13 65 24.1 27.4 0.00 0.00 0.00 93 1021.5
20260906140414 13 58 17.7 25.7 0.00 0.00 0.00 93 1021.7
20260906135913 13 63 24.1 33.8 0.00 0.00 0.00 93 1021.5
20260906135412 13 61 20.9 35.4 0.00 0.00 0.00 93 1021.4
20260906134908 13 53 22.5 29.0 0.00 0.00 0.00 92 1021.2
20260906134403 13 59 16.1 27.4 0.00 0.00 0.00 92 1021.6
20260906133857 13 54 17.7 29.0 0.00 0.00 0.00 92 1021.4
20260906133353 13 59 25.7 30.6 0.00 0.00 0.00 93 1021.2
20260906132849 13 59 25.7 30.6 0.00 0.00 0.00 93 1020.9
20260906132344 13 57 25.7 32.2 0.00 0.00 0.00 94 1021.0
20260906131840 13 63 29.0 32.2 0.00 0.00 0.00 94 1021.0
20260906131336 13 57 20.9 30.6 0.00 0.00 0.00 93 1020.9
20260906130831 13 57 27.4 30.6 0.00 0.00 0.00 93 1021.0
20260906130330 13 58 22.5 30.6 0.00 0.00 0.00 93 1021.5
20260906125830 13 59 24.1 30.6 0.00 0.00 0.00 93 1021.7
20260906125327 13 56 19.3 32.2 0.00 0.00 0.00 93 1021.5
20260906124822 13 48 24.1 30.6 0.00 0.00 0.00 94 1021.4
20260906124318 13 43 19.3 32.2 0.00 0.00 0.00 93 1021.5
20260906123817 13 41 17.7 35.4 0.00 0.00 0.00 93 1021.6
20260906123312 13 37 22.5 32.2 0.00 0.00 0.00 94 1021.4
20260906122811 12 38 25.7 32.2 0.00 0.00 0.00 94 1021.4
20260906122307 12 30 25.7 33.8 0.00 0.00 0.00 94 1021.4
20260906121803 12 31 24.1 35.4 0.00 0.00 0.00 94 1021.2
20260906121259 12 45 22.5 32.2 0.00 0.00 0.00 94 1021.2
20260906120755 12 37 24.1 30.6 0.00 0.00 0.00 95 1021.4
20260906120251 12 38 17.7 27.4 0.00 0.00 0.00 95 1021.4
20260906115746 12 27 24.1 32.2 0.00 0.00 0.00 95 1021.6
20260906115241 12 36 25.7 32.2 0.00 0.00 0.00 95 1021.6
20260906114740 12 33 24.1 27.4 0.00 0.00 0.00 94 1021.6
20260906114237 12 29 27.4 35.4 0.00 0.00 0.00 94 1021.4
20260906113732 12 39 20.9 40.2 0.00 0.00 0.00 94 1021.3
20260906113231 12 42 24.1 35.4 0.00 0.00 0.00 94 1021.4
20260906112730 12 40 30.6 35.4 0.00 0.00 0.00 94 1021.4
20260906112227 12 40 25.7 37.0 0.00 0.00 0.00 94 1021.5
20260906111726 12 45 22.5 35.4 0.00 0.00 0.00 94 1021.6
20260906111221 12 35 24.1 35.4 0.00 0.00 0.00 94 1021.7
20260906110716 12 30 25.7 33.8 0.00 0.00 0.00 93 1021.5
20260906110212 12 37 32.2 35.4 0.00 0.00 0.00 93 1021.5
20260906105705 12 40 19.3 37.0 0.00 0.00 0.00 93 1021.6
20260906105202 12 37 38.6 43.5 0.00 0.00 0.00 93 1021.4
20260906104701 12 34 25.7 35.4 0.00 0.00 0.00 93 1021.6
20260906104200 12 19 19.3 35.4 0.00 0.00 0.00 93 1021.6
20260906103658 12 30 30.6 41.8 0.00 0.00 0.00 93 1021.6
20260906103153 12 38 17.7 40.2 0.00 0.00 0.00 92 1021.4
20260906102649 12 33 33.8 40.2 0.00 0.00 0.00 93 1021.6
20260906102148 12 31 20.9 38.6 0.00 0.00 0.00 92 1021.7
20260906101648 12 21 27.4 32.2 0.00 0.00 0.00 93 1021.9
20260906101143 12 22 24.1 33.8 0.00 0.00 0.00 93 1022.0
20260906100638 12 16 24.1 40.2 0.00 0.00 0.00 93 1021.8
20260906100133 12 2 20.9 35.4 0.00 0.00 0.00 93 1021.8
20260906095628 12 31 27.4 38.6 0.00 0.00 0.00 93 1021.5
20260906095124 12 26 27.4 40.2 0.00 0.00 0.00 94 1021.4
20260906094622 12 16 20.9 35.4 0.00 0.00 0.00 94 1021.6
20260906094119 12 15 30.6 33.8 0.00 0.00 0.00 94 1021.5
20260906093614 12 28 25.7 35.4 0.00 0.00 0.00 94 1021.9
20260906093114 12 11 22.5 33.8 0.00 0.00 0.00 94 1021.8
20260906092609 12 22 22.5 33.8 0.00 0.00 0.00 94 1021.8
20260906092104 12 9 25.7 30.6 0.00 0.00 0.00 93 1021.9
20260906091600 12 350 25.7 35.4 0.00 0.00 0.00 93 1022.2
20260906091057 12 328 29.0 35.4 0.00 0.00 0.00 93 1022.3
20260906090557 12 343 22.5 27.4 0.00 0.00 0.00 93 1022.3
20260906090056 12 332 17.7 33.8 0.00 0.00 0.00 92 1022.5
20260906085555 12 5 22.5 38.6 0.00 0.00 0.00 92 1022.4
20260906085050 12 31 27.4 40.2 0.00 0.00 0.00 91 1021.9
20260906084545 12 32 35.4 40.2 0.00 0.00 0.00 91 1022.0
20260906084044 12 32 35.4 49.9 0.00 0.00 0.00 91 1022.3
20260906083540 12 26 27.4 53.1 0.00 0.00 0.00 91 1021.8
20260906083039 12 21 22.5 49.9 0.00 0.00 0.00 91 1022.0
20260906082535 12 34 46.7 48.3 0.00 0.00 0.00 92 1022.4
20260906082031 12 26 40.2 51.5 0.00 0.00 0.00 91 1022.3
20260906081526 12 35 30.6 43.5 0.00 0.00 0.00 91 1022.3
20260906081021 12 39 30.6 43.5 0.00 0.00 0.00 91 1022.3
20260906080517 12 29 30.6 43.5 0.00 0.00 0.00 90 1022.3
20260906080013 13 25 30.6 46.7 0.00 0.00 0.00 90 1022.4
20260906075507 13 30 43.5 48.3 0.00 0.00 0.00 89 1022.2
20260906075002 13 41 38.6 43.5 0.00 0.00 0.00 89 1022.3
20260906074457 13 31 32.2 43.5 0.00 0.00 0.00 89 1022.3
20260906073955 13 44 35.4 53.1 0.00 0.00 0.00 88 1022.3
20260906073450 13 39 32.2 43.5 0.00 0.00 0.00 89 1022.3
20260906072947 13 44 30.6 48.3 0.00 0.00 0.00 89 1022.3
20260906072442 13 42 40.2 46.7 0.00 0.00 0.00 88 1022.4
20260906071938 13 44 30.6 51.5 0.00 0.00 0.00 88 1022.4
20260906071434 13 39 25.7 46.7 0.00 0.00 0.00 87 1022.6
20260906070929 13 21 29.0 49.9 0.00 0.00 0.00 87 1022.5
20260906070425 13 33 33.8 48.3 0.00 0.00 0.00 87 1022.6
20260906065921 13 29 37.0 41.8 0.00 0.00 0.00 88 1022.7
20260906065415 13 33 30.6 46.7 0.00 0.00 0.00 87 1022.9
20260906064911 13 33 25.7 41.8 0.00 0.00 0.00 87 1022.9
20260906064407 13 38 35.4 48.3 0.00 0.00 0.00 87 1023.0
20260906063906 13 17 32.2 43.5 0.00 0.00 0.00 88 1023.0
20260906063356 13 27 27.4 40.2 0.00 0.00 0.00 87 1023.1
20260906062851 13 21 29.0 38.6 0.00 0.00 0.00 87 1023.0
20260906062350 13 23 22.5 41.8 0.00 0.00 0.00 87 1023.0
20260906061846 13 33 35.4 49.9 0.00 0.00 0.00 87 1022.9
20260906061342 13 33 14.5 24.1 0.00 0.00 0.00 88 1022.9
20260906060837 13 26 11.3 30.6 0.00 0.00 0.00 88 1023.1
20260906060335 13 28 22.5 35.4 0.00 0.00 0.00 88 1022.8
20260906055830 13 26 22.5 35.4 0.00 0.23 0.23 88 1022.8
20260906055326 13 21 22.5 37.0 0.00 0.23 0.23 88 1023.1
20260906054821 13 26 19.3 30.6 0.00 0.23 0.23 88 1023.1
20260906054315 13 24 25.7 32.2 0.00 0.23 0.23 88 1022.9
20260906053812 13 29 33.8 38.6 0.00 0.23 0.23 87 1022.7
20260906053307 13 25 19.3 37.0 0.00 0.23 0.23 87 1022.6
20260906052802 13 10 24.1 41.8 0.00 0.23 0.23 87 1022.7
20260906052259 13 21 25.7 32.2 0.00 0.23 0.23 87 1022.7
20260906051756 13 23 25.7 33.8 0.00 0.23 0.23 87 1022.9
20260906051255 13 27 16.1 35.4 0.00 0.23 0.23 87 1022.9
20260906050750 13 15 20.9 35.4 0.00 0.23 0.23 87 1022.8
20260906050246 13 7 19.3 33.8 0.00 0.23 0.23 87 1022.5
20260906045744 13 21 22.5 35.4 0.00 0.23 0.23 87 1022.7
20260906045239 13 24 25.7 33.8 0.00 0.23 0.23 86 1022.6
20260906044735 13 3 16.1 25.7 0.00 0.23 0.23 86 1023.4
20260906044230 13 3 25.7 27.4 0.00 0.23 0.23 86 1023.4
20260906043726 13 9 14.5 33.8 0.00 0.23 0.23 85 1022.8
20260906043222 13 10 20.9 32.2 0.00 0.23 0.23 85 1022.4
20260906042721 13 13 27.4 33.8 0.00 0.23 0.23 85 1022.4
20260906042220 13 12 22.5 33.8 0.00 0.23 0.23 86 1022.2
20260906041716 13 17 32.2 37.0 0.00 0.23 0.23 85 1022.2
20260906041211 13 16 27.4 41.8 0.00 0.23 0.23 85 1022.0
20260906040707 13 15 19.3 35.4 0.00 0.23 0.23 86 1022.0
20260906040202 13 6 16.1 37.0 0.00 0.23 0.23 85 1022.2
20260906035657 13 4 25.7 37.0 0.00 0.23 0.23 84 1022.3
20260906035153 13 19 22.5 32.2 0.00 0.23 0.23 85 1022.6
20260906034647 13 5 19.3 33.8 0.00 0.23 0.23 85 1022.6
20260906034142 13 18 22.5 33.8 0.00 0.23 0.23 85 1022.7
20260906033637 13 14 19.3 33.8 0.30 0.23 0.23 86 1022.6
20260906033132 13 8 25.7 38.6 1.02 0.23 0.23 86 1022.6
20260906032629 14 13 19.3 43.5 0.30 0.10 0.10 84 1022.7
20260906032128 15 359 20.9 30.6 0.00 0.05 0.05 72 1023.4
20260906031624 15 348 20.9 33.8 0.00 0.05 0.05 72 1023.3
20260906031119 15 18 27.4 40.2 0.00 0.05 0.05 72 1022.2
20260906030618 15 31 27.4 48.3 0.00 0.05 0.05 72 1022.0
20260906030114 15 31 43.5 46.7 0.00 0.05 0.05 71 1021.7
20260906025613 15 31 22.5 41.8 0.00 0.05 0.05 71 1021.7
20260906025112 15 30 30.6 48.3 0.00 0.05 0.05 71 1021.5
20260906024607 15 25 29.0 51.5 0.00 0.05 0.05 71 1021.3
20260906024101 15 19 35.4 43.5 0.00 0.05 0.05 70 1021.5
20260906023557 15 21 33.8 51.5 0.00 0.05 0.05 70 1021.3
20260906023052 15 26 40.2 45.1 0.00 0.05 0.05 69 1021.3
20260906022547 15 37 40.2 53.1 0.00 0.05 0.05 70 1021.0
20260906022042 15 32 30.6 40.2 0.00 0.05 0.05 70 1021.2
20260906021538 15 22 27.4 43.5 0.00 0.05 0.05 69 1021.4
20260906021036 16 35 37.0 45.1 0.00 0.05 0.05 69 1021.4
20260906020531 16 20 25.7 41.8 0.00 0.05 0.05 68 1021.3
20260906020031 16 23 29.0 41.8 0.00 0.05 0.05 68 1021.4
20260906015529 16 25 37.0 45.1 0.00 0.05 0.05 67 1021.4
20260906015024 16 38 29.0 38.6 0.00 0.05 0.05 67 1021.4
20260906014519 16 29 30.6 40.2 0.00 0.05 0.05 67 1021.4
20260906014015 16 30 20.9 38.6 0.00 0.05 0.05 66 1021.3
20260906013509 16 18 25.7 41.8 0.00 0.05 0.05 65 1021.3
20260906013000 17 51 25.7 32.2 0.00 0.05 0.05 64 1021.3
20260906012455 17 19 20.9 33.8 0.00 0.05 0.05 63 1021.2
20260906011954 17 25 35.4 38.6 0.00 0.05 0.05 62 1021.4
20260906011450 17 27 14.5 32.2 0.00 0.05 0.05 61 1021.4
20260906010944 18 29 22.5 30.6 0.00 0.05 0.05 60 1021.4
20260906010441 18 14 17.7 30.6 0.00 0.05 0.05 59 1021.3
20260906005937 18 27 16.1 30.6 0.00 0.05 0.05 58 1021.3
20260906005435 18 24 12.9 32.2 0.00 0.05 0.05 57 1021.5
20260906004928 18 21 25.7 32.2 0.00 0.05 0.05 57 1021.4
20260906004423 18 357 20.9 29.0 0.00 0.05 0.05 56 1021.5
20260906003919 19 11 17.7 32.2 0.00 0.05 0.05 55 1021.2
20260906003414 20 1 17.7 32.2 0.00 0.05 0.05 54 1021.5
20260906002908 20 16 27.4 33.8 0.00 0.05 0.05 53 1021.5
20260906002403 20 3 22.5 33.8 0.00 0.05 0.05 54 1021.5
20260906001858 20 20 27.4 30.6 0.00 0.05 0.05 52 1021.6
20260906001353 20 15 22.5 32.2 0.00 0.05 0.05 51 1021.4
20260906000848 20 19 16.1 27.4 0.00 0.05 0.05 51 1021.5
20260906000348 20 0 11.3 30.6 0.00 0.05 0.05 51 1021.6
20260905235843 20 22 20.9 32.2 0.00 0.05 0.05 51 1021.5
20260905235337 21 348 16.1 24.1 0.00 0.05 0.05 50 1021.8
20260905234833 21 40 27.4 32.2 0.00 0.05 0.05 50 1021.9
20260905234328 21 30 24.1 30.6 0.00 0.05 0.05 48 1021.8
20260905233823 21 13 11.3 24.1 0.00 0.05 0.05 48 1021.7
20260905233318 22 55 20.9 27.4 0.00 0.05 0.05 46 1021.7
20260905232817 22 46 17.7 32.2 0.00 0.05 0.05 46 1021.8